Location: Shenandoah County Park
(38.9356°N, 78.4524°W)
Time: 18:50:23
(UTC-05:00)

N. Korean satellite - Pass Details

Date: 10 December 2021
Orbit: 447 x 490 km, 97.3° (Epoch: 26 January)

Event Time Altitude Azimuth Distance (km) Brightness Sun altitude
Rises 06:21:59 0° 352° (N) 2,455 9.9 -11.4°
Enters shadow 06:22:54 - 347° (NNW) 2,119 9.5 -11.2°
Exits shadow 06:25:56 15° 307° (NW) 1,305 8.1 -10.7°
Maximum altitude 06:26:43 16° 291° (WNW) 1,257 8.0 -10.5°
Drops below altitude 10° 06:28:50 10° 251° (WSW) 1,577 8.7 -10.1°
Sets 06:31:26 0° 229° (SW) 2,449 9.9 -9.7°
